Weather History for PGSN - December, 2011

Change the Weather History Date:

Wednesday, December 14, 2011

  Actual Average Record
Temperature  
Mean Temperature 80 °F -  
Max Temperature 84 °F 83 °F 89 °F (2012)
Min Temperature 77 °F 76 °F 71 °F (2000)
Cooling Degree Days 16    
Growing Degree Days 30 (Base 50)    
Moisture  
Dew Point 74 °F    
Average Humidity 79    
Maximum Humidity 94    
Minimum Humidity 67    
Precipitation  
Precipitation 0.98 in - - ()
Sea Level Pressure  
Sea Level Pressure 29.94 in    
Wind  
Wind Speed 19 mph (ENE)    
Max Wind Speed 24 mph    
Max Gust Speed 31 mph    
Visibility 10 miles    
Events Rain    
Averages and records for this station are not official NWS values.
T = Trace of Precipitation, MM = Missing Value Source: NWS Daily Summary

Daily Weather History Graph

Daily Weather History Graph

Search for Another Location

Airport or City:

Trip Planner

Search our weather history database for the weather conditions in past years. The results will help you decide how hot, cold, wet, or windy it might be!

Date:

Astronomy

Dec. 14, 2011 Rise Set
Actual Time 6:34 AM ChST 5:48 PM ChST
Civil Twilight 6:10 AM ChST 6:11 PM ChST
Nautical Twilight 5:44 AM ChST 6:38 PM ChST
Astronomical Twilight 5:17 AM ChST 7:05 PM ChST
Moon 9:04 PM ChST (12/14) 9:13 AM ChST (12/14)
Length of Visible Light 12h 01m
Length of Day
11h 14m
Waning Gibbous, 88% of the Moon is Illuminated
Dec 14
Waning Gibbous
Dec 18
Last Quarter
Dec 25
New
Jan 1
First Quarter
Jan 9
Full

Hourly Weather History & Observations

Time (ChST) Temp. Heat Index Dew Point Humidity Pressure Visibility Wind Dir Wind Speed Gust Speed Precip Events Conditions
12:54 AM 77.0 °F - 75.0 °F 94% 29.97 in 5.0 mi ENE 13.8 mph 26.5 mph 0.01 in Rain Light Rain
1:54 AM 78.1 °F - 75.9 °F 93% 29.95 in 10.0 mi ENE 17.3 mph 23.0 mph 0.00 in Rain Light Rain
2:54 AM 78.1 °F - 75.0 °F 90% 29.93 in 10.0 mi ENE 19.6 mph - 0.00 in   Mostly Cloudy
3:54 AM 78.1 °F - 75.0 °F 90% 29.92 in 10.0 mi ENE 18.4 mph 24.2 mph N/A   Mostly Cloudy
4:54 AM 80.1 °F 85.1 °F 75.0 °F 85% 29.93 in 10.0 mi ENE 20.7 mph 28.8 mph N/A   Overcast
5:54 AM 80.1 °F 84.5 °F 73.9 °F 81% 29.94 in 10.0 mi ENE 20.7 mph 29.9 mph N/A   Overcast
6:54 AM 80.1 °F 84.2 °F 73.0 °F 79% 29.96 in 10.0 mi ENE 20.7 mph 28.8 mph N/A   Mostly Cloudy
7:20 AM 80.6 °F 85.4 °F 73.4 °F 79% 29.91 in 10.0 mi ENE 21.9 mph 26.5 mph N/A   Mostly Cloudy
7:36 AM 80.6 °F 85.4 °F 73.4 °F 79% 29.91 in 10.0 mi ENE 20.7 mph - N/A   Scattered Clouds
7:54 AM 81.0 °F 86.2 °F 73.9 °F 79% 29.98 in 10.0 mi ENE 24.2 mph 29.9 mph N/A   Scattered Clouds
8:54 AM 82.0 °F 88.6 °F 75.0 °F 79% 30.00 in 10.0 mi ENE 19.6 mph 29.9 mph 0.96 in   Scattered Clouds
9:54 AM 84.0 °F 90.2 °F 73.0 °F 69% 30.00 in 10.0 mi ENE 20.7 mph 31.1 mph N/A   Partly Cloudy
10:54 AM 84.9 °F 93.3 °F 75.0 °F 72% 29.99 in 10.0 mi ENE 19.6 mph 28.8 mph N/A   Partly Cloudy
11:54 AM 84.9 °F 91.4 °F 73.0 °F 67% 29.98 in 10.0 mi ENE 19.6 mph 27.6 mph N/A   Scattered Clouds
12:54 PM 84.9 °F 92.1 °F 73.9 °F 69% 29.94 in 10.0 mi ENE 20.7 mph 28.8 mph N/A   Partly Cloudy
1:54 PM 84.9 °F 92.1 °F 73.9 °F 69% 29.92 in 10.0 mi ENE 21.9 mph 27.6 mph N/A   Scattered Clouds
2:54 PM 84.0 °F 90.2 °F 73.0 °F 69% 29.91 in 10.0 mi ENE 21.9 mph - N/A   Scattered Clouds
3:54 PM 82.9 °F 88.8 °F 73.0 °F 72% 29.91 in 10.0 mi ENE 17.3 mph 27.6 mph N/A   Scattered Clouds
4:54 PM 82.0 °F 86.7 °F 72.0 °F 71% 29.91 in 10.0 mi ENE 21.9 mph 28.8 mph N/A   Partly Cloudy
5:54 PM 80.1 °F 83.8 °F 72.0 °F 76% 29.92 in 10.0 mi ENE 19.6 mph 25.3 mph N/A   Scattered Clouds
6:54 PM 80.1 °F 83.8 °F 72.0 °F 76% 29.92 in 10.0 mi ENE 20.7 mph 27.6 mph N/A   Partly Cloudy
7:54 PM 80.1 °F 84.2 °F 73.0 °F 79% 29.94 in 10.0 mi ENE 21.9 mph 26.5 mph N/A   Scattered Clouds
8:54 PM 80.1 °F 85.1 °F 75.0 °F 85% 29.95 in 10.0 mi ENE 20.7 mph 27.6 mph N/A   Scattered Clouds
9:54 PM 80.1 °F 85.1 °F 75.0 °F 85% 29.94 in 10.0 mi ENE 19.6 mph - N/A   Clear
10:54 PM 80.1 °F 85.1 °F 75.0 °F 85% 29.93 in 10.0 mi ENE 21.9 mph 27.6 mph N/A   Mostly Cloudy
11:54 PM 79.0 °F - 75.9 °F 90% 29.93 in 10.0 mi ENE 21.9 mph 28.8 mph 0.01 in   Scattered Clouds